Knoxville, TN

10:07 AM EDT on August 19, 2017 (GMT -0400)
McGhee Tyson

Weather History for KTYS - August, 2014

Change the Weather History Date:

Wednesday, August 6, 2014

  Actual Average Record
Temperature  
Mean Temperature 77 °F 78 °F  
Max Temperature 87 °F 88 °F 99 °F (1930)
Min Temperature 66 °F 69 °F 56 °F (2017)
Degree Days  
Heating Degree Days 0 0  
Month to date heating degree days 0 0  
Since 1 June heating degree days 0 4  
Since 1 July heating degree days 0 0  
Cooling Degree Days 12 13  
Month to date cooling degree days 57 78  
Year to date cooling degree days 909 962  
Since 1 June cooling degree days 704 800  
Growing Degree Days 26 (Base 50)    
Moisture  
Dew Point 65 °F    
Average Humidity 68    
Maximum Humidity 87    
Minimum Humidity 48    
Precipitation  
Precipitation T in 0.13 in 2.46 in (1887)
Month to date precipitation 0.24 0.75  
Year to date precipitation 25.49 31.08  
Snow  
Snow 0.00 in 0.00 in - ()
Month to date snowfall 0.0 0.0  
Since 1 June snowfall 0.0 0.0  
Since 1 July snowfall 0.0 0.0  
Snow Depth 0.00 in    
Sea Level Pressure  
Sea Level Pressure 30.00 in    
Wind  
Wind Speed 5 mph (SW)    
Max Wind Speed 15 mph    
Max Gust Speed 18 mph    
Visibility 10 miles    
Events      
T = Trace of Precipitation, MM = Missing Value Source: NWS Daily Summary

Daily Weather History Graph

Daily Weather History Graph

Search for Another Location

Airport or City:

Trip Planner

Search our weather history database for the weather conditions in past years. The results will help you decide how hot, cold, wet, or windy it might be!

Date:

Astronomy

Aug. 06, 2014 Rise Set
Actual Time 6:47 AM EDT 8:35 PM EDT
Civil Twilight 6:19 AM EDT 9:03 PM EDT
Nautical Twilight 5:46 AM EDT 9:36 PM EDT
Astronomical Twilight 5:10 AM EDT 10:12 PM EDT
Moon 4:50 PM EDT (8/6) 2:23 AM EDT (8/6)
Length of Visible Light 14h 43m
Length of Day
13h 47m
Waxing Gibbous, 77% of the Moon is Illuminated
Aug 6
Waxing Gibbous
Aug 10
Full
Aug 17
Last Quarter
Aug 25
New
Sep 2
First Quarter

Hourly Weather History & Observations

Time (EDT) Temp. Heat Index Dew Point Humidity Pressure Visibility Wind Dir Wind Speed Gust Speed Precip Events Conditions
12:53 AM 71.1 °F - 63.0 °F 75% 30.02 in 10.0 mi Calm Calm - N/A   Mostly Cloudy
1:53 AM 70.0 °F - 63.0 °F 78% 30.01 in 10.0 mi SE 3.5 mph - N/A   Mostly Cloudy
2:53 AM 68.0 °F - 63.0 °F 84% 30.00 in 10.0 mi Calm Calm - N/A   Scattered Clouds
3:53 AM 68.0 °F - 62.1 °F 81% 30.00 in 10.0 mi Calm Calm - N/A   Scattered Clouds
4:53 AM 66.0 °F - 63.0 °F 90% 30.01 in 9.0 mi Calm Calm - N/A   Overcast
5:53 AM 66.9 °F - 63.0 °F 87% 30.00 in 10.0 mi SW 3.5 mph - N/A   Overcast
6:53 AM 66.0 °F - 62.1 °F 87% 30.01 in 10.0 mi South 4.6 mph - N/A   Mostly Cloudy
7:53 AM 68.0 °F - 63.0 °F 84% 30.03 in 9.0 mi WSW 3.5 mph - N/A   Mostly Cloudy
8:53 AM 70.0 °F - 62.1 °F 76% 30.04 in 10.0 mi SSW 3.5 mph - N/A   Mostly Cloudy
9:53 AM 73.9 °F - 64.0 °F 71% 30.04 in 10.0 mi SSW 3.5 mph - N/A   Scattered Clouds
10:53 AM 78.1 °F - 62.1 °F 58% 30.03 in 10.0 mi SW 8.1 mph - N/A   Scattered Clouds
11:53 AM 80.1 °F 81.5 °F 63.0 °F 56% 30.03 in 10.0 mi SSW 6.9 mph - N/A   Mostly Cloudy
12:53 PM 82.4 °F 84.6 °F 66.2 °F 58% 30.05 in 10.0 mi SW 8.1 mph - N/A   Scattered Clouds
1:53 PM 86.0 °F 87.6 °F 64.9 °F 49% 30.00 in 10.0 mi WSW 9.2 mph 17.3 mph N/A   Scattered Clouds
2:53 PM 84.0 °F 86.3 °F 66.0 °F 55% 29.98 in 10.0 mi West 11.5 mph - N/A   Mostly Cloudy
3:53 PM 82.0 °F 84.9 °F 68.0 °F 62% 29.97 in 9.0 mi SW 11.5 mph - 0.00 in   Mostly Cloudy
4:53 PM 84.9 °F 87.1 °F 66.0 °F 53% 29.95 in 10.0 mi SW 9.2 mph - N/A   Scattered Clouds
5:53 PM 86.0 °F 88.8 °F 66.9 °F 53% 29.95 in 10.0 mi WSW 6.9 mph - N/A   Scattered Clouds
6:53 PM 84.9 °F 88.2 °F 68.0 °F 57% 29.94 in 10.0 mi West 4.6 mph - N/A   Mostly Cloudy
7:53 PM 81.0 °F 84.4 °F 70.0 °F 69% 29.95 in 9.0 mi NNE 5.8 mph - N/A   Scattered Clouds
8:53 PM 77.0 °F - 70.0 °F 79% 29.95 in 9.0 mi NE 5.8 mph - N/A   Scattered Clouds
9:53 PM 75.9 °F - 70.0 °F 82% 29.96 in 9.0 mi NE 3.5 mph - N/A   Mostly Cloudy
10:53 PM 75.0 °F - 71.1 °F 87% 29.98 in 8.0 mi ENE 3.5 mph - N/A   Scattered Clouds
11:53 PM 75.0 °F - 72.0 °F 90% 29.99 in 7.0 mi Calm Calm - N/A   Mostly Cloudy